Year,Month,Day,Hour,Minute,Value (Times are PST for temperature in C)
2017,10,29,00,00,8.40
2017,10,29,00,01,8.40
2017,10,29,00,02,8.30
2017,10,29,00,03,8.30
2017,10,29,00,04,8.30
2017,10,29,00,05,8.30
2017,10,29,00,06,8.20
2017,10,29,00,07,8.20
2017,10,29,00,08,8.20
2017,10,29,00,09,8.10
2017,10,29,00,10,8.10
2017,10,29,00,11,8.10
2017,10,29,00,12,8.00
2017,10,29,00,13,8.00
2017,10,29,00,14,8.00
2017,10,29,00,15,7.90
2017,10,29,00,16,7.90
2017,10,29,00,17,7.90
2017,10,29,00,18,7.80
2017,10,29,00,19,7.80
2017,10,29,00,20,7.80
2017,10,29,00,21,7.80
2017,10,29,00,22,7.70
2017,10,29,00,23,7.70
2017,10,29,00,24,7.70
2017,10,29,00,25,7.70
2017,10,29,00,26,7.60
2017,10,29,00,27,7.60
2017,10,29,00,28,7.60
2017,10,29,00,29,7.60
2017,10,29,00,30,7.50
2017,10,29,00,31,7.50
2017,10,29,00,32,7.50
2017,10,29,00,33,7.40
2017,10,29,00,34,7.40
2017,10,29,00,35,7.40
2017,10,29,00,36,7.40
2017,10,29,00,37,7.40
2017,10,29,00,38,7.30
2017,10,29,00,39,7.30
2017,10,29,00,40,7.30
2017,10,29,00,41,7.30
2017,10,29,00,42,7.30
2017,10,29,00,43,7.30
2017,10,29,00,44,7.20
2017,10,29,00,45,7.20
2017,10,29,00,46,7.20
2017,10,29,00,47,7.20
2017,10,29,00,48,7.20
2017,10,29,00,49,7.20
2017,10,29,00,50,7.20
2017,10,29,00,51,7.20
2017,10,29,00,52,7.10
2017,10,29,00,53,7.10
2017,10,29,00,54,7.10
2017,10,29,00,55,7.10
2017,10,29,00,56,7.10
2017,10,29,00,57,7.10
2017,10,29,00,58,7.10
2017,10,29,00,59,7.10
2017,10,29,01,00,7.00
2017,10,29,01,01,7.00
2017,10,29,01,02,7.00
2017,10,29,01,03,7.00
2017,10,29,01,04,7.00
2017,10,29,01,05,7.00
2017,10,29,01,06,7.10
2017,10,29,01,07,7.10
2017,10,29,01,08,7.10
2017,10,29,01,09,7.10
2017,10,29,01,10,7.10
2017,10,29,01,11,7.10
2017,10,29,01,12,7.10
2017,10,29,01,13,7.10
2017,10,29,01,14,7.10
2017,10,29,01,15,7.10
2017,10,29,01,16,7.10
2017,10,29,01,17,7.00
2017,10,29,01,18,7.00
2017,10,29,01,19,7.00
2017,10,29,01,20,7.00
2017,10,29,01,21,7.00
2017,10,29,01,22,6.90
2017,10,29,01,23,6.90
2017,10,29,01,24,6.90
2017,10,29,01,25,6.90
2017,10,29,01,26,6.90
2017,10,29,01,27,6.90
2017,10,29,01,28,6.90
2017,10,29,01,29,6.90
2017,10,29,01,30,6.80
2017,10,29,01,31,6.80
2017,10,29,01,32,6.80
2017,10,29,01,33,6.80
2017,10,29,01,34,6.80
2017,10,29,01,35,6.80
2017,10,29,01,36,6.80
2017,10,29,01,37,6.80
2017,10,29,01,38,6.80
2017,10,29,01,39,6.80
2017,10,29,01,40,6.80
2017,10,29,01,41,6.80
2017,10,29,01,42,6.80
2017,10,29,01,43,6.80
2017,10,29,01,44,6.70
2017,10,29,01,45,6.70
2017,10,29,01,46,6.70
2017,10,29,01,47,6.70
2017,10,29,01,48,6.70
2017,10,29,01,49,6.70
2017,10,29,01,50,6.70
2017,10,29,01,51,6.70
2017,10,29,01,52,6.70
2017,10,29,01,53,6.70
2017,10,29,01,54,6.70
2017,10,29,01,55,6.70
2017,10,29,01,56,6.70
2017,10,29,01,57,6.60
2017,10,29,01,58,6.60
2017,10,29,01,59,6.60
2017,10,29,02,00,6.60
2017,10,29,02,01,6.60
2017,10,29,02,02,6.60
2017,10,29,02,03,6.50
2017,10,29,02,04,6.50
2017,10,29,02,05,6.50
2017,10,29,02,06,6.50
2017,10,29,02,07,6.50
2017,10,29,02,08,6.50
2017,10,29,02,09,6.40
2017,10,29,02,10,6.50
2017,10,29,02,11,6.50
2017,10,29,02,12,6.50
2017,10,29,02,13,6.40
2017,10,29,02,14,6.40
2017,10,29,02,15,6.40
2017,10,29,02,16,6.40
2017,10,29,02,17,6.40
2017,10,29,02,18,6.40
2017,10,29,02,19,6.40
2017,10,29,02,20,6.40
2017,10,29,02,21,6.30
2017,10,29,02,22,6.30
2017,10,29,02,23,6.30
2017,10,29,02,24,6.30
2017,10,29,02,25,6.30
2017,10,29,02,26,6.30
2017,10,29,02,27,6.30
2017,10,29,02,28,6.30
2017,10,29,02,29,6.30
2017,10,29,02,30,6.30
2017,10,29,02,31,6.30
2017,10,29,02,32,6.30
2017,10,29,02,33,6.30
2017,10,29,02,34,6.30
2017,10,29,02,35,6.30
2017,10,29,02,36,6.30
2017,10,29,02,37,6.30
2017,10,29,02,38,6.30
2017,10,29,02,39,6.30
2017,10,29,02,40,6.30
2017,10,29,02,41,6.30
2017,10,29,02,42,6.30
2017,10,29,02,43,6.20
2017,10,29,02,44,6.20
2017,10,29,02,45,6.20
2017,10,29,02,46,6.20
2017,10,29,02,47,6.20
2017,10,29,02,48,6.20
2017,10,29,02,49,6.20
2017,10,29,02,50,6.20
2017,10,29,02,51,6.10
2017,10,29,02,52,6.10
2017,10,29,02,53,6.10
2017,10,29,02,54,6.10
2017,10,29,02,55,6.10
2017,10,29,02,56,6.10
2017,10,29,02,57,6.10
2017,10,29,02,58,6.10
2017,10,29,02,59,6.10
2017,10,29,03,00,6.10
2017,10,29,03,01,6.10
2017,10,29,03,02,6.10
2017,10,29,03,03,6.10
2017,10,29,03,04,6.10
2017,10,29,03,05,6.10
2017,10,29,03,06,6.10
2017,10,29,03,07,6.10
2017,10,29,03,08,6.10
2017,10,29,03,09,6.10
2017,10,29,03,10,6.10
2017,10,29,03,11,6.10
2017,10,29,03,12,6.10
2017,10,29,03,13,6.10
2017,10,29,03,14,6.10
2017,10,29,03,15,6.10
2017,10,29,03,16,6.10
2017,10,29,03,17,6.10
2017,10,29,03,18,6.10
2017,10,29,03,19,6.10
2017,10,29,03,20,6.10
2017,10,29,03,21,6.10
2017,10,29,03,22,6.00
2017,10,29,03,23,6.00
2017,10,29,03,24,6.00
2017,10,29,03,25,6.00
2017,10,29,03,26,6.00
2017,10,29,03,27,6.00
2017,10,29,03,28,6.00
2017,10,29,03,29,6.00
2017,10,29,03,30,6.00
2017,10,29,03,31,6.00
2017,10,29,03,32,6.00
2017,10,29,03,33,6.00
2017,10,29,03,34,6.00
2017,10,29,03,35,6.00
2017,10,29,03,36,6.00
2017,10,29,03,37,6.00
2017,10,29,03,38,6.00
2017,10,29,03,39,6.00
2017,10,29,03,40,6.00
2017,10,29,03,41,6.00
2017,10,29,03,42,6.00
2017,10,29,03,43,6.00
2017,10,29,03,44,6.00
2017,10,29,03,45,6.00
2017,10,29,03,46,6.00
2017,10,29,03,47,6.00
2017,10,29,03,48,5.90
2017,10,29,03,49,5.90
2017,10,29,03,50,5.90
2017,10,29,03,51,5.90
2017,10,29,03,52,5.90
2017,10,29,03,53,5.90
2017,10,29,03,54,5.90
2017,10,29,03,55,5.90
2017,10,29,03,56,5.90
2017,10,29,03,57,5.90
2017,10,29,03,58,5.90
2017,10,29,03,59,5.90
2017,10,29,04,00,5.90
2017,10,29,04,01,5.90
2017,10,29,04,02,5.90
2017,10,29,04,03,5.80
2017,10,29,04,04,5.80
2017,10,29,04,05,5.80
2017,10,29,04,06,5.80
2017,10,29,04,07,5.90
2017,10,29,04,08,5.90
2017,10,29,04,09,5.90
2017,10,29,04,10,5.90
2017,10,29,04,11,5.90
2017,10,29,04,12,5.80
2017,10,29,04,13,5.80
2017,10,29,04,14,5.80
2017,10,29,04,15,5.80
2017,10,29,04,16,5.80
2017,10,29,04,17,5.80
2017,10,29,04,18,5.80
2017,10,29,04,19,5.80
2017,10,29,04,20,5.80
2017,10,29,04,21,5.80
2017,10,29,04,22,5.80
2017,10,29,04,23,5.80
2017,10,29,04,24,5.80
2017,10,29,04,25,5.90
2017,10,29,04,26,5.90
2017,10,29,04,27,5.90
2017,10,29,04,28,5.90
2017,10,29,04,29,5.90
2017,10,29,04,30,5.90
2017,10,29,04,31,5.90
2017,10,29,04,32,5.90
2017,10,29,04,33,5.90
2017,10,29,04,34,5.80
2017,10,29,04,35,5.80
2017,10,29,04,36,5.80
2017,10,29,04,37,5.80
2017,10,29,04,38,5.80
2017,10,29,04,39,5.80
2017,10,29,04,40,5.80
2017,10,29,04,41,5.80
2017,10,29,04,42,5.80
2017,10,29,04,43,5.80
2017,10,29,04,44,5.80
2017,10,29,04,45,5.80
2017,10,29,04,46,5.80
2017,10,29,04,47,5.80
2017,10,29,04,48,5.80
2017,10,29,04,49,5.80
2017,10,29,04,50,5.80
2017,10,29,04,51,5.80
2017,10,29,04,52,5.80
2017,10,29,04,53,5.80
2017,10,29,04,54,5.80
2017,10,29,04,55,5.80
2017,10,29,04,56,5.80
2017,10,29,04,57,5.80
2017,10,29,04,58,5.70
2017,10,29,04,59,5.70
2017,10,29,05,00,5.70
2017,10,29,05,01,5.70
2017,10,29,05,02,5.70
2017,10,29,05,03,5.70
2017,10,29,05,04,5.70
2017,10,29,05,05,5.70
2017,10,29,05,06,5.70
2017,10,29,05,07,5.70
2017,10,29,05,08,5.60
2017,10,29,05,09,5.60
2017,10,29,05,10,5.60
2017,10,29,05,11,5.60
2017,10,29,05,12,5.60
2017,10,29,05,13,5.60
2017,10,29,05,14,5.60
2017,10,29,05,15,5.60
2017,10,29,05,16,5.60
2017,10,29,05,17,5.60
2017,10,29,05,18,5.50
2017,10,29,05,19,5.50
2017,10,29,05,20,5.50
2017,10,29,05,21,5.50
2017,10,29,05,22,5.50
2017,10,29,05,23,5.50
2017,10,29,05,24,5.50
2017,10,29,05,25,5.40
2017,10,29,05,26,5.40
2017,10,29,05,27,5.40
2017,10,29,05,28,5.40
2017,10,29,05,29,5.40
2017,10,29,05,30,5.40
2017,10,29,05,31,5.40
2017,10,29,05,32,5.40
2017,10,29,05,33,5.40
2017,10,29,05,34,5.40
2017,10,29,05,35,5.40
2017,10,29,05,36,5.40
2017,10,29,05,37,5.40
2017,10,29,05,38,5.40
2017,10,29,05,39,5.40
2017,10,29,05,40,5.40
2017,10,29,05,41,5.40
2017,10,29,05,42,5.30
2017,10,29,05,43,5.30
2017,10,29,05,44,5.30
2017,10,29,05,45,5.30
2017,10,29,05,46,5.30
2017,10,29,05,47,5.30
2017,10,29,05,48,5.30
2017,10,29,05,49,5.30
2017,10,29,05,50,5.30
2017,10,29,05,51,5.30
2017,10,29,05,52,5.30
2017,10,29,05,53,5.30
2017,10,29,05,54,5.30
2017,10,29,05,55,5.30
2017,10,29,05,56,5.30
2017,10,29,05,57,5.30
2017,10,29,05,58,5.30
2017,10,29,05,59,5.30
2017,10,29,06,00,5.30
2017,10,29,06,01,5.30
2017,10,29,06,02,5.30
2017,10,29,06,03,5.20
2017,10,29,06,04,5.20
2017,10,29,06,05,5.20
2017,10,29,06,06,5.20
2017,10,29,06,07,5.20
2017,10,29,06,08,5.20
2017,10,29,06,09,5.20
2017,10,29,06,10,5.20
2017,10,29,06,11,5.20
2017,10,29,06,12,5.20
2017,10,29,06,13,5.20
2017,10,29,06,14,5.20
2017,10,29,06,15,5.20
2017,10,29,06,16,5.20
2017,10,29,06,17,5.20
2017,10,29,06,18,5.20
2017,10,29,06,19,5.20
2017,10,29,06,20,5.10
2017,10,29,06,21,5.10
2017,10,29,06,22,5.10
2017,10,29,06,23,5.10
2017,10,29,06,24,5.10
2017,10,29,06,25,5.10
2017,10,29,06,26,5.10
2017,10,29,06,27,5.10
2017,10,29,06,28,5.10
2017,10,29,06,29,5.10
2017,10,29,06,30,5.10
2017,10,29,06,31,5.00
2017,10,29,06,32,5.00
2017,10,29,06,33,5.00
2017,10,29,06,34,5.00
2017,10,29,06,35,5.00
2017,10,29,06,36,5.00
2017,10,29,06,37,5.00
2017,10,29,06,38,5.00
2017,10,29,06,39,5.00
2017,10,29,06,40,5.00
2017,10,29,06,41,5.00
2017,10,29,06,42,5.00
2017,10,29,06,43,5.00
2017,10,29,06,44,5.00
2017,10,29,06,45,5.00
2017,10,29,06,46,5.00
2017,10,29,06,47,5.00
2017,10,29,06,48,5.00
2017,10,29,06,49,5.00
2017,10,29,06,50,5.00
2017,10,29,06,51,5.10
2017,10,29,06,52,5.10
2017,10,29,06,53,5.10
2017,10,29,06,54,5.20
2017,10,29,06,55,5.20
2017,10,29,06,56,5.20
2017,10,29,06,57,5.20
2017,10,29,06,58,5.20
2017,10,29,06,59,5.20
2017,10,29,07,00,5.20
2017,10,29,07,01,5.20
2017,10,29,07,02,5.20
2017,10,29,07,03,5.20
2017,10,29,07,04,5.20
2017,10,29,07,05,5.20
2017,10,29,07,06,5.20
2017,10,29,07,07,5.20
2017,10,29,07,08,5.20
2017,10,29,07,09,5.20
2017,10,29,07,10,5.30
2017,10,29,07,11,5.30
2017,10,29,07,12,5.30
2017,10,29,07,13,5.40
2017,10,29,07,14,5.40
2017,10,29,07,15,5.50
2017,10,29,07,16,5.60
2017,10,29,07,17,5.60
2017,10,29,07,18,5.70
2017,10,29,07,19,5.80
2017,10,29,07,20,5.80
2017,10,29,07,21,5.90
2017,10,29,07,22,5.90
2017,10,29,07,23,6.00
2017,10,29,07,24,6.10
2017,10,29,07,25,6.10
2017,10,29,07,26,6.20
2017,10,29,07,27,6.20
2017,10,29,07,28,6.20
2017,10,29,07,29,6.30
2017,10,29,07,30,6.30
2017,10,29,07,31,6.30
2017,10,29,07,32,6.30
2017,10,29,07,33,6.30
2017,10,29,07,34,6.40
2017,10,29,07,35,6.40
2017,10,29,07,36,6.40
2017,10,29,07,37,6.40
2017,10,29,07,38,6.40
2017,10,29,07,39,6.40
2017,10,29,07,40,6.40
2017,10,29,07,41,6.30
2017,10,29,07,42,6.30
2017,10,29,07,43,6.30
2017,10,29,07,44,6.30
2017,10,29,07,45,6.30
2017,10,29,07,46,6.30
2017,10,29,07,47,6.20
2017,10,29,07,48,6.20
2017,10,29,07,49,6.20
2017,10,29,07,50,6.20
2017,10,29,07,51,6.20
2017,10,29,07,52,6.20
2017,10,29,07,53,6.20
2017,10,29,07,54,6.10
2017,10,29,07,55,6.10
2017,10,29,07,56,6.10
2017,10,29,07,57,6.10
2017,10,29,07,58,6.00
2017,10,29,07,59,6.00
2017,10,29,08,00,5.90
2017,10,29,08,01,5.90
2017,10,29,08,02,5.90
2017,10,29,08,03,5.90
2017,10,29,08,04,5.90
2017,10,29,08,05,5.80
2017,10,29,08,06,5.80
2017,10,29,08,07,5.80
2017,10,29,08,08,5.80
2017,10,29,08,09,5.80
2017,10,29,08,10,5.80
2017,10,29,08,11,5.80
2017,10,29,08,12,5.80
2017,10,29,08,13,5.80
2017,10,29,08,14,5.80
2017,10,29,08,15,5.80
2017,10,29,08,16,5.80
2017,10,29,08,17,5.80
2017,10,29,08,18,5.70
2017,10,29,08,19,5.70
2017,10,29,08,20,5.70
2017,10,29,08,21,5.70
2017,10,29,08,22,5.70
2017,10,29,08,23,5.70
2017,10,29,08,24,5.70
2017,10,29,08,25,5.70
2017,10,29,08,26,5.70
2017,10,29,08,27,5.70
2017,10,29,08,28,5.70
2017,10,29,08,29,5.70
2017,10,29,08,30,5.70
2017,10,29,08,31,5.70
2017,10,29,08,32,5.70
2017,10,29,08,33,5.70
2017,10,29,08,34,5.70
2017,10,29,08,35,5.70
2017,10,29,08,36,5.70
2017,10,29,08,37,5.70
2017,10,29,08,38,5.70
2017,10,29,08,39,5.70
2017,10,29,08,40,5.70
2017,10,29,08,41,5.70
2017,10,29,08,42,5.70
2017,10,29,08,43,5.70
2017,10,29,08,44,5.70
2017,10,29,08,45,5.70
2017,10,29,08,46,5.70
2017,10,29,08,47,5.70
2017,10,29,08,48,5.70
2017,10,29,08,49,5.70
2017,10,29,08,50,5.70
2017,10,29,08,51,5.70
2017,10,29,08,52,5.70
2017,10,29,08,53,5.70
2017,10,29,08,54,5.70
2017,10,29,08,55,5.70
2017,10,29,08,56,5.80
2017,10,29,08,57,5.80
2017,10,29,08,58,5.80
2017,10,29,08,59,5.80
2017,10,29,09,00,5.70
2017,10,29,09,01,5.70
2017,10,29,09,02,5.80
2017,10,29,09,03,5.80
2017,10,29,09,04,5.80
2017,10,29,09,05,5.80
2017,10,29,09,06,5.90
2017,10,29,09,07,5.90
2017,10,29,09,08,5.90
2017,10,29,09,09,6.00
2017,10,29,09,10,6.00
2017,10,29,09,11,6.00
2017,10,29,09,12,6.00
2017,10,29,09,13,6.10
2017,10,29,09,14,6.20
2017,10,29,09,15,6.20
2017,10,29,09,16,6.30
2017,10,29,09,17,6.30
2017,10,29,09,18,6.40
2017,10,29,09,19,6.40
2017,10,29,09,20,6.50
2017,10,29,09,21,6.60
2017,10,29,09,22,6.70
2017,10,29,09,23,6.70
2017,10,29,09,24,6.80
2017,10,29,09,25,6.80
2017,10,29,09,26,6.90
2017,10,29,09,27,7.00
2017,10,29,09,28,7.10
2017,10,29,09,29,7.10
2017,10,29,09,30,7.20
2017,10,29,09,31,7.30
2017,10,29,09,32,7.30
2017,10,29,09,33,7.40
2017,10,29,09,34,7.40
2017,10,29,09,35,7.50
2017,10,29,09,36,7.60
2017,10,29,09,37,7.60
2017,10,29,09,38,7.70
2017,10,29,09,39,7.80
2017,10,29,09,40,7.90
2017,10,29,09,41,7.90
2017,10,29,09,42,8.00
2017,10,29,09,43,8.10
2017,10,29,09,44,8.20
2017,10,29,09,45,8.20
2017,10,29,09,46,8.30
2017,10,29,09,47,8.40
2017,10,29,09,48,8.50
2017,10,29,09,49,8.50
2017,10,29,09,50,8.60
2017,10,29,09,51,8.60
2017,10,29,09,52,8.60
2017,10,29,09,53,8.70
2017,10,29,09,54,8.70
2017,10,29,09,55,8.70
2017,10,29,09,56,8.80
2017,10,29,09,57,8.80
2017,10,29,09,58,8.80
2017,10,29,09,59,8.80
2017,10,29,10,00,8.90
2017,10,29,10,01,8.90
2017,10,29,10,02,8.90
2017,10,29,10,03,9.00
2017,10,29,10,04,9.00
2017,10,29,10,05,9.00
2017,10,29,10,06,9.10
2017,10,29,10,07,9.10
2017,10,29,10,08,9.10
2017,10,29,10,09,9.20
2017,10,29,10,10,9.20
2017,10,29,10,11,9.30
2017,10,29,10,12,9.30
2017,10,29,10,13,9.30
2017,10,29,10,14,9.40
2017,10,29,10,15,9.40
2017,10,29,10,16,9.50
2017,10,29,10,17,9.50
2017,10,29,10,18,9.60
2017,10,29,10,19,9.60
2017,10,29,10,20,9.70
2017,10,29,10,21,9.70
2017,10,29,10,22,9.70
2017,10,29,10,23,9.80
2017,10,29,10,24,9.80
2017,10,29,10,25,9.80
2017,10,29,10,26,9.90
2017,10,29,10,27,9.90
2017,10,29,10,28,10.00
2017,10,29,10,29,10.00
2017,10,29,10,30,10.00
2017,10,29,10,31,10.10
2017,10,29,10,32,10.10
2017,10,29,10,33,10.10
2017,10,29,10,34,10.10
2017,10,29,10,35,10.10
2017,10,29,10,36,10.20
2017,10,29,10,37,10.20
2017,10,29,10,38,10.20
2017,10,29,10,39,10.20
2017,10,29,10,40,10.30
2017,10,29,10,41,10.30
2017,10,29,10,42,10.40
2017,10,29,10,43,10.40
2017,10,29,10,44,10.40
2017,10,29,10,45,10.40
2017,10,29,10,46,10.50
2017,10,29,10,47,10.60
2017,10,29,10,48,10.60
2017,10,29,10,49,10.70
2017,10,29,10,50,10.70
2017,10,29,10,51,10.80
2017,10,29,10,52,10.80
2017,10,29,10,53,10.80
2017,10,29,10,54,10.80
2017,10,29,10,55,10.80
2017,10,29,10,56,10.90
2017,10,29,10,57,11.10
2017,10,29,10,58,11.10
2017,10,29,10,59,11.10
2017,10,29,11,00,11.10
2017,10,29,11,01,11.10
2017,10,29,11,02,11.10
2017,10,29,11,03,11.10
2017,10,29,11,04,11.20
2017,10,29,11,05,11.20
2017,10,29,11,06,11.20
2017,10,29,11,07,11.30
2017,10,29,11,08,11.30
2017,10,29,11,09,11.40
2017,10,29,11,10,11.40
2017,10,29,11,11,11.50
2017,10,29,11,12,11.60
2017,10,29,11,13,11.60
2017,10,29,11,14,11.60
2017,10,29,11,15,11.70
2017,10,29,11,16,11.70
2017,10,29,11,17,11.70
2017,10,29,11,18,11.70
2017,10,29,11,19,11.80
2017,10,29,11,20,11.80
2017,10,29,11,21,11.80
2017,10,29,11,22,11.90
2017,10,29,11,23,11.90
2017,10,29,11,24,12.00
2017,10,29,11,25,12.10
2017,10,29,11,26,12.10
2017,10,29,11,27,12.20
2017,10,29,11,28,12.30
2017,10,29,11,29,12.30
2017,10,29,11,30,12.30
2017,10,29,11,31,12.30
2017,10,29,11,32,12.30
2017,10,29,11,33,12.40
2017,10,29,11,34,12.40
2017,10,29,11,35,12.50
2017,10,29,11,36,12.60
2017,10,29,11,37,12.60
2017,10,29,11,38,12.70
2017,10,29,11,39,12.70
2017,10,29,11,40,12.70
2017,10,29,11,41,12.70
2017,10,29,11,42,12.70
2017,10,29,11,43,12.70
2017,10,29,11,44,12.70
2017,10,29,11,45,12.80
2017,10,29,11,46,12.80
2017,10,29,11,47,12.80
2017,10,29,11,48,12.80
2017,10,29,11,49,12.90
2017,10,29,11,50,13.00
2017,10,29,11,51,13.00
2017,10,29,11,52,13.10
2017,10,29,11,53,13.10
2017,10,29,11,54,13.20
2017,10,29,11,55,13.20
2017,10,29,11,56,13.30
2017,10,29,11,57,13.30
2017,10,29,11,58,13.40
2017,10,29,11,59,13.50
2017,10,29,12,00,13.50
2017,10,29,12,01,13.60
2017,10,29,12,02,13.70
2017,10,29,12,03,13.70
2017,10,29,12,04,13.80
2017,10,29,12,05,13.80
2017,10,29,12,06,13.80
2017,10,29,12,07,13.90
2017,10,29,12,08,13.90
2017,10,29,12,09,13.90
2017,10,29,12,10,14.00
2017,10,29,12,11,14.00
2017,10,29,12,12,14.10
2017,10,29,12,13,14.20
2017,10,29,12,14,14.30
2017,10,29,12,15,14.30
2017,10,29,12,16,14.40
2017,10,29,12,17,14.50
2017,10,29,12,18,14.50
2017,10,29,12,19,14.70
2017,10,29,12,20,14.70
2017,10,29,12,21,14.70
2017,10,29,12,22,14.70
2017,10,29,12,23,14.80
2017,10,29,12,24,14.90
2017,10,29,12,25,15.00
2017,10,29,12,26,15.10
2017,10,29,12,27,15.20
2017,10,29,12,28,15.30
2017,10,29,12,29,15.30
2017,10,29,12,30,15.30
2017,10,29,12,31,15.30
2017,10,29,12,32,15.40
2017,10,29,12,33,15.50
2017,10,29,12,34,15.60
2017,10,29,12,35,15.70
2017,10,29,12,36,15.80
2017,10,29,12,37,15.90
2017,10,29,12,38,16.00
2017,10,29,12,39,16.00
2017,10,29,12,40,16.00
2017,10,29,12,41,16.10
2017,10,29,12,42,16.10
2017,10,29,12,43,16.00
2017,10,29,12,44,16.00
2017,10,29,12,45,16.00
2017,10,29,12,46,16.00
2017,10,29,12,47,15.90
2017,10,29,12,48,16.00
2017,10,29,12,49,16.00
2017,10,29,12,50,16.00
2017,10,29,12,51,16.00
2017,10,29,12,52,16.10
2017,10,29,12,53,16.10
2017,10,29,12,54,16.10
2017,10,29,12,55,16.10
2017,10,29,12,56,16.10
2017,10,29,12,57,16.10
2017,10,29,12,58,16.10
2017,10,29,12,59,16.20
2017,10,29,13,00,16.30
2017,10,29,13,01,16.30
2017,10,29,13,02,16.40
2017,10,29,13,03,16.50
2017,10,29,13,04,16.50
2017,10,29,13,05,16.60
2017,10,29,13,06,16.80
2017,10,29,13,07,16.80
2017,10,29,13,08,16.90
2017,10,29,13,09,17.00
2017,10,29,13,10,17.00
2017,10,29,13,11,17.10
2017,10,29,13,12,17.10
2017,10,29,13,13,17.20
2017,10,29,13,14,17.30
2017,10,29,13,15,17.40
2017,10,29,13,16,17.40
2017,10,29,13,17,17.50
2017,10,29,13,18,17.60
2017,10,29,13,19,17.70
2017,10,29,13,20,17.80
2017,10,29,13,21,17.80
2017,10,29,13,22,17.90
2017,10,29,13,23,17.90
2017,10,29,13,24,18.00
2017,10,29,13,25,18.00
2017,10,29,13,26,18.10
2017,10,29,13,27,18.10
2017,10,29,13,28,18.20
2017,10,29,13,29,18.20
2017,10,29,13,30,18.20
2017,10,29,13,31,18.30
2017,10,29,13,32,18.30
2017,10,29,13,33,18.30
2017,10,29,13,34,18.30
2017,10,29,13,35,18.30
2017,10,29,13,36,18.30
2017,10,29,13,37,18.40
2017,10,29,13,38,18.40
2017,10,29,13,39,18.40
2017,10,29,13,40,18.50
2017,10,29,13,41,18.50
2017,10,29,13,42,18.50
2017,10,29,13,43,18.60
2017,10,29,13,44,18.60
2017,10,29,13,45,18.60
2017,10,29,13,46,18.70
2017,10,29,13,47,18.70
2017,10,29,13,48,18.70
2017,10,29,13,49,18.70
2017,10,29,13,50,18.70
2017,10,29,13,51,18.70
2017,10,29,13,52,18.70
2017,10,29,13,53,18.70
2017,10,29,13,54,18.70
2017,10,29,13,55,18.70
2017,10,29,13,56,18.70
2017,10,29,13,57,18.80
2017,10,29,13,58,18.80
2017,10,29,13,59,18.80
2017,10,29,14,00,18.80
2017,10,29,14,01,18.80
2017,10,29,14,02,18.80
2017,10,29,14,03,18.80
2017,10,29,14,04,18.80
2017,10,29,14,05,18.80
2017,10,29,14,06,18.80
2017,10,29,14,07,18.80
2017,10,29,14,08,18.80
2017,10,29,14,09,18.90
2017,10,29,14,10,18.90
2017,10,29,14,11,18.90
2017,10,29,14,12,18.90
2017,10,29,14,13,18.90
2017,10,29,14,14,18.90
2017,10,29,14,15,18.90
2017,10,29,14,16,18.90
2017,10,29,14,17,18.90
2017,10,29,14,18,18.90
2017,10,29,14,19,19.00
2017,10,29,14,20,19.00
2017,10,29,14,21,19.00
2017,10,29,14,22,19.00
2017,10,29,14,23,18.90
2017,10,29,14,24,18.90
2017,10,29,14,25,18.90
2017,10,29,14,26,18.90
2017,10,29,14,27,19.00
2017,10,29,14,28,19.00
2017,10,29,14,29,19.00
2017,10,29,14,30,19.00
2017,10,29,14,31,19.00
2017,10,29,14,32,19.00
2017,10,29,14,33,19.00
2017,10,29,14,34,19.00
2017,10,29,14,35,19.00
2017,10,29,14,36,19.00
2017,10,29,14,37,19.00
2017,10,29,14,38,18.90
2017,10,29,14,39,18.90
2017,10,29,14,40,18.90
2017,10,29,14,41,18.90
2017,10,29,14,42,18.90
2017,10,29,14,43,18.90
2017,10,29,14,44,19.00
2017,10,29,14,45,19.00
2017,10,29,14,46,19.10
2017,10,29,14,47,19.10
2017,10,29,14,48,19.10
2017,10,29,14,49,19.10
2017,10,29,14,50,19.20
2017,10,29,14,51,19.20
2017,10,29,14,52,19.20
2017,10,29,14,53,19.20
2017,10,29,14,54,19.30
2017,10,29,14,55,19.20
2017,10,29,14,56,19.20
2017,10,29,14,57,19.20
2017,10,29,14,58,19.20
2017,10,29,14,59,19.20
2017,10,29,15,00,19.20
2017,10,29,15,01,19.30
2017,10,29,15,02,19.30
2017,10,29,15,03,19.30
2017,10,29,15,04,19.30
2017,10,29,15,05,19.30
2017,10,29,15,06,19.30
2017,10,29,15,07,19.30
2017,10,29,15,08,19.30
2017,10,29,15,09,19.30
2017,10,29,15,10,19.40
2017,10,29,15,11,19.40
2017,10,29,15,12,19.40
2017,10,29,15,13,19.30
2017,10,29,15,14,19.30
2017,10,29,15,15,19.30
2017,10,29,15,16,19.30
2017,10,29,15,17,19.30
2017,10,29,15,18,19.30
2017,10,29,15,19,19.30
2017,10,29,15,20,19.30
2017,10,29,15,21,19.30
2017,10,29,15,22,19.30
2017,10,29,15,23,19.30
2017,10,29,15,24,19.30
2017,10,29,15,25,19.40
2017,10,29,15,26,19.40
2017,10,29,15,27,19.40
2017,10,29,15,28,19.40
2017,10,29,15,29,19.40
2017,10,29,15,30,19.30
2017,10,29,15,31,19.30
2017,10,29,15,32,19.30
2017,10,29,15,33,19.30
2017,10,29,15,34,19.30
2017,10,29,15,35,19.30
2017,10,29,15,36,19.30
2017,10,29,15,37,19.40
2017,10,29,15,38,19.40
2017,10,29,15,39,19.40
2017,10,29,15,40,19.40
2017,10,29,15,41,19.30
2017,10,29,15,42,19.30
2017,10,29,15,43,19.30
2017,10,29,15,44,19.30
2017,10,29,15,45,19.30
2017,10,29,15,46,19.30
2017,10,29,15,47,19.30
2017,10,29,15,48,19.30
2017,10,29,15,49,19.30
2017,10,29,15,50,19.30
2017,10,29,15,51,19.30
2017,10,29,15,52,19.30
2017,10,29,15,53,19.30
2017,10,29,15,54,19.30
2017,10,29,15,55,19.30
2017,10,29,15,56,19.30
2017,10,29,15,57,19.30
2017,10,29,15,58,19.30
2017,10,29,15,59,19.30
2017,10,29,16,00,19.30
2017,10,29,16,01,19.30
2017,10,29,16,02,19.30
2017,10,29,16,03,19.30
2017,10,29,16,04,19.30
2017,10,29,16,05,19.30
2017,10,29,16,06,19.30
2017,10,29,16,07,19.30
2017,10,29,16,08,19.30
2017,10,29,16,09,19.30
2017,10,29,16,10,19.30
2017,10,29,16,11,19.30
2017,10,29,16,12,19.30
2017,10,29,16,13,19.20
2017,10,29,16,14,19.20
2017,10,29,16,15,19.20
2017,10,29,16,16,19.10
2017,10,29,16,17,19.10
2017,10,29,16,18,19.10
2017,10,29,16,19,19.10
2017,10,29,16,20,19.10
2017,10,29,16,21,19.10
2017,10,29,16,22,19.10
2017,10,29,16,23,19.10
2017,10,29,16,24,19.10
2017,10,29,16,25,19.00
2017,10,29,16,26,19.00
2017,10,29,16,27,19.00
2017,10,29,16,28,18.90
2017,10,29,16,29,18.90
2017,10,29,16,30,18.90
2017,10,29,16,31,18.90
2017,10,29,16,32,18.90
2017,10,29,16,33,18.80
2017,10,29,16,34,18.80
2017,10,29,16,35,18.80
2017,10,29,16,36,18.80
2017,10,29,16,37,18.80
2017,10,29,16,38,18.80
2017,10,29,16,39,18.80
2017,10,29,16,40,18.70
2017,10,29,16,41,18.70
2017,10,29,16,42,18.70
2017,10,29,16,43,18.70
2017,10,29,16,44,18.70
2017,10,29,16,45,18.70
2017,10,29,16,46,18.60
2017,10,29,16,47,18.60
2017,10,29,16,48,18.60
2017,10,29,16,49,18.60
2017,10,29,16,50,18.60
2017,10,29,16,51,18.60
2017,10,29,16,52,18.60
2017,10,29,16,53,18.50
2017,10,29,16,54,18.50
2017,10,29,16,55,18.50
2017,10,29,16,56,18.40
2017,10,29,16,57,18.40
2017,10,29,16,58,18.40
2017,10,29,16,59,18.40
2017,10,29,17,00,18.40
2017,10,29,17,01,18.40
2017,10,29,17,02,18.30
2017,10,29,17,03,18.30
2017,10,29,17,04,18.30
2017,10,29,17,05,18.30
2017,10,29,17,06,18.20
2017,10,29,17,07,18.20
2017,10,29,17,08,18.20
2017,10,29,17,09,18.20
2017,10,29,17,10,18.20
2017,10,29,17,11,18.20
2017,10,29,17,12,18.10
2017,10,29,17,13,18.10
2017,10,29,17,14,18.10
2017,10,29,17,15,18.10
2017,10,29,17,16,18.10
2017,10,29,17,17,18.10
2017,10,29,17,18,18.10
2017,10,29,17,19,18.10
2017,10,29,17,20,18.00
2017,10,29,17,21,17.90
2017,10,29,17,22,17.90
2017,10,29,17,23,17.90
2017,10,29,17,24,17.90
2017,10,29,17,25,17.90
2017,10,29,17,26,17.90
2017,10,29,17,27,17.90
2017,10,29,17,28,17.90
2017,10,29,17,29,17.90
2017,10,29,17,30,17.90
2017,10,29,17,31,17.80
2017,10,29,17,32,17.80
2017,10,29,17,33,17.80
2017,10,29,17,34,17.90
2017,10,29,17,35,17.90
2017,10,29,17,36,17.90
2017,10,29,17,37,17.90
2017,10,29,17,38,17.90
2017,10,29,17,39,17.80
2017,10,29,17,40,17.80
2017,10,29,17,41,17.80
2017,10,29,17,42,17.90
2017,10,29,17,43,17.80
2017,10,29,17,44,17.80
2017,10,29,17,45,17.80
2017,10,29,17,46,17.70